Weather History for KYKN - July, 2013

Change the Weather History Date:

Tuesday, July 9, 2013

  Actual Average Record
Temperature  
Mean Temperature 76 °F -  
Max Temperature 84 °F 87 °F 105 °F (1989)
Min Temperature 69 °F 63 °F 50 °F (1996)
Cooling Degree Days 12    
Growing Degree Days 26 (Base 50)    
Moisture  
Dew Point 68 °F    
Average Humidity 71    
Maximum Humidity 88    
Minimum Humidity 51    
Precipitation  
Precipitation 0.24 in - - ()
Sea Level Pressure  
Sea Level Pressure 29.93 in    
Wind  
Wind Speed 10 mph (WNW)    
Max Wind Speed 23 mph    
Max Gust Speed 33 mph    
Visibility 10 miles    
Events Thunderstorm    
Averages and records for this station are not official NWS values.
T = Trace of Precipitation, MM = Missing Value Source: NWS Daily Summary

Daily Weather History Graph

Daily Weather History Graph

Search for Another Location

Airport or City:

Trip Planner

Search our weather history database for the weather conditions in past years. The results will help you decide how hot, cold, wet, or windy it might be!

Date:

Astronomy

Jul. 09, 2013 Rise Set
Actual Time 5:59 AM CDT 9:09 PM CDT
Civil Twilight 5:25 AM CDT 9:44 PM CDT
Nautical Twilight 4:40 AM CDT 10:28 PM CDT
Astronomical Twilight 3:47 AM CDT 11:21 PM CDT
Moon 7:28 AM CDT (7/9) 9:43 PM CDT (7/9)
Length of Visible Light 16h 18m
Length of Day
15h 09m
New Moon, 2% of the Moon is Illuminated
Jul 9
New Moon
Jul 15
First Quarter
Jul 22
Full
Jul 29
Last Quarter
Aug 6
New

Hourly Weather History & Observations

Time (CDT) Temp. Heat Index Dew Point Humidity Pressure Visibility Wind Dir Wind Speed Gust Speed Precip Events Conditions
12:15 AM 77.0 °F - 71.6 °F 83% 29.90 in 10.0 mi SSE 9.2 mph - N/A   Clear
12:35 AM 78.8 °F - 71.6 °F 78% 29.91 in 10.0 mi South 15.0 mph 23.0 mph N/A   Clear
12:55 AM 78.8 °F - 66.2 °F 65% 29.88 in 10.0 mi SSE 12.7 mph - N/A   Clear
1:15 AM 77.0 °F - 66.2 °F 69% 29.87 in 10.0 mi SSE 8.1 mph - N/A   Clear
1:35 AM 75.2 °F - 68.0 °F 78% 29.86 in 10.0 mi ESE 6.9 mph - N/A   Partly Cloudy
1:55 AM 78.8 °F - 68.0 °F 69% 29.86 in 10.0 mi ESE 8.1 mph - N/A Thunderstorm Mostly Cloudy
2:15 AM 78.8 °F - 69.8 °F 74% 29.89 in 10.0 mi SSW 11.5 mph - N/A Thunderstorm Overcast
2:35 AM 77.0 °F - 66.2 °F 69% 29.85 in 10.0 mi South 17.3 mph 24.2 mph 0.05 in Thunderstorm Mostly Cloudy
2:55 AM 73.4 °F - 66.2 °F 78% 29.83 in 8.0 mi SSE 23.0 mph 27.6 mph 0.19 in Thunderstorm Thunderstorm
3:15 AM 73.4 °F - 68.0 °F 83% 29.84 in 10.0 mi SSE 10.4 mph - 0.02 in Thunderstorm Mostly Cloudy
3:35 AM 71.6 °F - 68.0 °F 88% 29.84 in 10.0 mi South 4.6 mph - 0.05 in Thunderstorm Partly Cloudy
3:55 AM 73.4 °F - 68.0 °F 83% 29.85 in 10.0 mi North 4.6 mph - 0.05 in Thunderstorm Clear
4:15 AM 73.4 °F - 69.8 °F 88% 29.88 in 10.0 mi WNW 4.6 mph - N/A   Clear
4:35 AM 75.2 °F - 68.0 °F 78% 29.87 in 10.0 mi SSW 5.8 mph - N/A   Clear
4:55 AM 73.4 °F - 68.0 °F 83% 29.87 in 10.0 mi WSW 5.8 mph - N/A   Scattered Clouds
5:15 AM 73.4 °F - 68.0 °F 83% 29.89 in 10.0 mi West 9.2 mph - N/A   Scattered Clouds
5:35 AM 75.2 °F - 66.2 °F 73% 29.90 in 10.0 mi West 5.8 mph - N/A   Scattered Clouds
5:55 AM 73.4 °F - 66.2 °F 78% 29.94 in 10.0 mi NNW 21.9 mph 33.4 mph N/A   Mostly Cloudy
6:15 AM 71.6 °F - 64.4 °F 78% 29.94 in 10.0 mi North 15.0 mph 28.8 mph N/A   Overcast
6:35 AM 69.8 °F - 64.4 °F 83% 29.92 in 10.0 mi NNE 12.7 mph - N/A   Scattered Clouds
6:55 AM 69.8 °F - 64.4 °F 83% 29.91 in 10.0 mi ENE 9.2 mph - N/A   Clear
7:15 AM 69.8 °F - 64.4 °F 83% 29.92 in 10.0 mi Calm Calm - N/A   Clear
7:35 AM 69.8 °F - 64.4 °F 83% 29.91 in 10.0 mi Calm Calm - N/A   Clear
7:55 AM 71.6 °F - 64.4 °F 78% 29.90 in 10.0 mi SE 5.8 mph - N/A   Clear
8:15 AM 71.6 °F - 64.4 °F 78% 29.90 in 10.0 mi SE 4.6 mph - N/A   Clear
8:35 AM 71.6 °F - 66.2 °F 83% 29.90 in 10.0 mi SSE 9.2 mph - N/A   Clear
8:55 AM 73.4 °F - 66.2 °F 78% 29.90 in 10.0 mi SSE 12.7 mph - N/A   Clear
9:15 AM 75.2 °F - 68.0 °F 78% 29.90 in 10.0 mi SSE 9.2 mph - N/A   Clear
9:35 AM 75.2 °F - 68.0 °F 78% 29.91 in 10.0 mi SSE 4.6 mph - N/A   Clear
9:55 AM 78.8 °F - 69.8 °F 74% 29.91 in 10.0 mi South 4.6 mph - N/A   Clear
10:15 AM 78.8 °F - 69.8 °F 74% 29.90 in 10.0 mi South 6.9 mph - N/A   Clear
10:35 AM 80.6 °F 83.9 °F 69.8 °F 70% 29.90 in 10.0 mi SSE 10.4 mph - N/A   Clear
10:55 AM 80.6 °F 83.9 °F 69.8 °F 70% 29.91 in 10.0 mi SSW 5.8 mph - N/A   Clear
11:15 AM 80.6 °F 83.9 °F 69.8 °F 70% 29.91 in 10.0 mi SW 6.9 mph - N/A   Clear
11:35 AM 82.4 °F 86.3 °F 69.8 °F 66% 29.92 in 10.0 mi WSW 6.9 mph - N/A   Clear
11:55 AM 82.4 °F 87.2 °F 71.6 °F 70% 29.92 in 10.0 mi WSW 9.2 mph - N/A   Clear
12:15 PM 82.4 °F 87.2 °F 71.6 °F 70% 29.93 in 10.0 mi West 9.2 mph - N/A   Clear
12:35 PM 84.2 °F 89.6 °F 71.6 °F 66% 29.93 in 10.0 mi NW 9.2 mph - N/A   Clear
12:55 PM 84.2 °F 89.6 °F 71.6 °F 66% 29.93 in 10.0 mi West 11.5 mph - N/A   Clear
1:15 PM 84.2 °F 89.6 °F 71.6 °F 66% 29.94 in 10.0 mi NW 10.4 mph 19.6 mph N/A   Partly Cloudy
1:35 PM 84.2 °F 89.6 °F 71.6 °F 66% 29.93 in 10.0 mi NW 17.3 mph 21.9 mph N/A   Scattered Clouds
1:55 PM 84.2 °F 89.6 °F 71.6 °F 66% 29.94 in 10.0 mi NNW 13.8 mph - N/A   Partly Cloudy
2:15 PM 84.2 °F 88.4 °F 69.8 °F 62% 29.95 in 10.0 mi NNW 12.7 mph - N/A   Clear
2:35 PM 84.2 °F 88.4 °F 69.8 °F 62% 29.94 in 10.0 mi NW 12.7 mph - N/A   Clear
2:55 PM 84.2 °F 88.4 °F 69.8 °F 62% 29.94 in 10.0 mi NW 15.0 mph 18.4 mph N/A   Clear
3:15 PM 84.2 °F 88.4 °F 69.8 °F 62% 29.95 in 10.0 mi NNW 15.0 mph 20.7 mph N/A   Clear
3:35 PM 84.2 °F 88.4 °F 69.8 °F 62% 29.95 in 10.0 mi NNW 11.5 mph - N/A   Clear
3:55 PM 84.2 °F 88.4 °F 69.8 °F 62% 29.95 in 10.0 mi NW 12.7 mph - N/A   Clear
4:15 PM 84.2 °F 87.3 °F 68.0 °F 58% 29.95 in 10.0 mi NNW 12.7 mph 19.6 mph N/A   Clear
4:35 PM 84.2 °F 86.6 °F 66.2 °F 55% 29.95 in 10.0 mi NNW 12.7 mph 17.3 mph N/A   Clear
4:55 PM 84.2 °F 87.3 °F 68.0 °F 58% 29.95 in 10.0 mi NNW 10.4 mph - N/A   Clear
5:15 PM 84.2 °F 87.3 °F 68.0 °F 58% 29.95 in 10.0 mi NNW 11.5 mph - N/A   Clear
5:35 PM 84.2 °F 86.6 °F 66.2 °F 55% 29.95 in 10.0 mi NNW 10.4 mph - N/A   Clear
5:55 PM 84.2 °F 85.6 °F 64.4 °F 51% 29.95 in 10.0 mi NNW 10.4 mph - N/A   Clear
6:15 PM 84.2 °F 86.6 °F 66.2 °F 55% 29.95 in 10.0 mi NNW 12.7 mph 16.1 mph N/A   Clear
6:35 PM 84.2 °F 86.6 °F 66.2 °F 55% 29.95 in 10.0 mi North 11.5 mph - N/A   Clear
6:55 PM 84.2 °F 86.6 °F 66.2 °F 55% 29.95 in 10.0 mi North 6.9 mph - N/A   Clear
7:15 PM 82.4 °F 84.6 °F 66.2 °F 58% 29.96 in 10.0 mi North 9.2 mph - N/A   Clear
7:35 PM 82.4 °F 83.9 °F 64.4 °F 54% 29.96 in 10.0 mi NNW 8.1 mph - N/A   Clear
7:55 PM 80.6 °F 82.7 °F 66.2 °F 61% 29.97 in 10.0 mi NNW 8.1 mph - N/A   Clear
8:15 PM 80.6 °F 82.7 °F 66.2 °F 61% 29.97 in 10.0 mi NNW 8.1 mph - N/A   Clear
8:35 PM 78.8 °F - 66.2 °F 65% 29.98 in 10.0 mi NNW 6.9 mph - N/A   Clear
8:55 PM 77.0 °F - 66.2 °F 69% 29.99 in 10.0 mi NNW 4.6 mph - N/A   Clear
9:15 PM 75.2 °F - 68.0 °F 78% 30.00 in 10.0 mi NW 3.5 mph - N/A   Clear
9:35 PM 75.2 °F - 66.2 °F 73% 30.01 in 10.0 mi NW 5.8 mph - N/A   Clear
9:55 PM 75.2 °F - 66.2 °F 73% 30.01 in 10.0 mi NW 5.8 mph - N/A   Clear
10:15 PM 73.4 °F - 66.2 °F 78% 30.02 in 10.0 mi NW 6.9 mph - N/A   Clear
10:35 PM 71.6 °F - 66.2 °F 83% 30.02 in 10.0 mi NW 5.8 mph - N/A   Clear
10:55 PM 71.6 °F - 66.2 °F 83% 30.02 in 10.0 mi NW 5.8 mph - N/A   Clear
11:15 PM 71.6 °F - 66.2 °F 83% 30.02 in 10.0 mi WNW 6.9 mph - N/A   Clear
11:35 PM 71.6 °F - 64.4 °F 78% 30.02 in 10.0 mi NW 8.1 mph - N/A   Clear
11:55 PM 69.8 °F - 64.4 °F 83% 30.03 in 10.0 mi WNW 6.9 mph - N/A   Clear